When you browse on this site, cookies collect data to enhance your experience and personalize the content and advertising you see.
Visit our Privacy Policy to learn more. By continuing to use the site, you agree to this use of cookies and data.
  • In Österreich
  • Länderverzeichnis
  • Für 7 Tage
  • Wassertemperatur
  • Wetterkarte
  • News
  • Widgets
  • user-avatar
    Anmelden

    Stündliche Wetter Zatyshne

    Heute, 29 Januar, Mittwoch

    Zeit Temperatur Niederschläge Wind Luftdruck Luftfeuchtigkeit
    00:00 +3°C° 0.1 mm 2 m/S 743 mmHg 97%
    01:00 +4°C° 0.1 mm 1 m/S 743 mmHg 97%
    02:00 +4°C° 0 mm 1 m/S 743 mmHg 97%
    03:00 +4°C° 0 mm 1 m/S 742 mmHg 97%
    04:00 +4°C° 0 mm 1 m/S 742 mmHg 97%
    05:00 +3°C° 0 mm 0 m/S 742 mmHg 98%
    06:00 +4°C° 0 mm 1 m/S 742 mmHg 98%
    07:00 +4°C° 0 mm 1 m/S 742 mmHg 98%
    08:00 +3°C° 0 mm 2 m/S 742 mmHg 98%
    09:00 +4°C° 0 mm 2 m/S 741 mmHg 95%
    10:00 +3°C° 0 mm 3 m/S 741 mmHg 93%
    11:00 +4°C° 0 mm 4 m/S 741 mmHg 90%
    12:00 +5°C° 0 mm 5 m/S 741 mmHg 86%
    13:00 +5°C° 0 mm 5 m/S 740 mmHg 82%
    14:00 +5°C° 0 mm 6 m/S 740 mmHg 77%
    15:00 +5°C° 0.1 mm 6 m/S 739 mmHg 78%
    16:00 +5°C° 0.1 mm 7 m/S 739 mmHg 79%
    17:00 +5°C° 0.1 mm 7 m/S 738 mmHg 80%
    18:00 +5°C° 0.8 mm 7 m/S 738 mmHg 83%
    19:00 +4°C° 0.8 mm 8 m/S 738 mmHg 87%
    20:00 +3°C° 0.8 mm 9 m/S 738 mmHg 90%
    21:00 +2°C° 0.3 mm 8 m/S 738 mmHg 87%
    22:00 +3°C° 0.3 mm 7 m/S 739 mmHg 84%
    23:00 +2°C° 0.3 mm 7 m/S 739 mmHg 81%

    Morgen, 30 Januar, Donnerstag

    Zeit Temperatur Niederschläge Wind Luftdruck Luftfeuchtigkeit
    00:00 +1°C° 0 mm 6 m/S 740 mmHg 80%
    01:00 -1°C° 0 mm 6 m/S 741 mmHg 80%
    02:00 -1°C° 0 mm 6 m/S 742 mmHg 79%
    03:00 -1°C° 0 mm 5 m/S 742 mmHg 80%
    04:00 -1°C° 0 mm 5 m/S 742 mmHg 80%
    05:00 -2°C° 0 mm 4 m/S 742 mmHg 81%
    06:00 -2°C° 0 mm 5 m/S 742 mmHg 81%
    07:00 -2°C° 0 mm 5 m/S 743 mmHg 80%
    08:00 -3°C° 0 mm 6 m/S 743 mmHg 80%
    09:00 -1°C° 0 mm 7 m/S 743 mmHg 73%
    10:00 0°C° 0 mm 7 m/S 743 mmHg 66%
    11:00 +1°C° 0 mm 8 m/S 743 mmHg 59%
    12:00 +2°C° 0 mm 8 m/S 743 mmHg 58%
    13:00 +3°C° 0 mm 7 m/S 743 mmHg 56%
    14:00 +3°C° 0 mm 7 m/S 743 mmHg 55%
    15:00 +3°C° 0 mm 6 m/S 743 mmHg 59%
    16:00 +2°C° 0 mm 6 m/S 743 mmHg 63%
    17:00 +1°C° 0 mm 5 m/S 743 mmHg 67%
    18:00 +1°C° 0 mm 5 m/S 744 mmHg 68%
    19:00 +1°C° 0 mm 5 m/S 744 mmHg 69%
    20:00 0°C° 0 mm 5 m/S 744 mmHg 69%
    21:00 0°C° 0 mm 4 m/S 744 mmHg 72%
    22:00 -1°C° 0 mm 4 m/S 744 mmHg 75%
    23:00 -1°C° 0 mm 4 m/S 744 mmHg 78%

    übermorgen, 31 Januar, Freitag

    Zeit Temperatur Niederschläge Wind Luftdruck Luftfeuchtigkeit
    00:00 -2°C° 0 mm 4 m/S 744 mmHg 81%
    01:00 -2°C° 0 mm 4 m/S 744 mmHg 84%
    02:00 -2°C° 0 mm 4 m/S 745 mmHg 88%
    03:00 -2°C° 0 mm 4 m/S 745 mmHg 88%
    04:00 -2°C° 0 mm 4 m/S 745 mmHg 89%
    05:00 -2°C° 0 mm 4 m/S 745 mmHg 89%
    06:00 -2°C° 0 mm 4 m/S 745 mmHg 89%
    07:00 -2°C° 0 mm 4 m/S 745 mmHg 89%
    08:00 -3°C° 0 mm 4 m/S 745 mmHg 90%
    09:00 -1°C° 0 mm 4 m/S 745 mmHg 79%
    10:00 0°C° 0 mm 5 m/S 745 mmHg 69%
    11:00 +2°C° 0 mm 6 m/S 744 mmHg 59%
    12:00 +2°C° 0 mm 6 m/S 744 mmHg 57%
    13:00 +3°C° 0 mm 6 m/S 743 mmHg 56%
    14:00 +3°C° 0 mm 7 m/S 743 mmHg 54%
    15:00 +2°C° 0 mm 6 m/S 742 mmHg 59%
    16:00 +2°C° 0 mm 5 m/S 742 mmHg 64%
    17:00 +1°C° 0 mm 4 m/S 741 mmHg 69%
    18:00 +1°C° 0 mm 4 m/S 741 mmHg 71%
    19:00 +1°C° 0 mm 4 m/S 741 mmHg 74%
    20:00 0°C° 0 mm 4 m/S 741 mmHg 76%
    21:00 0°C° 0 mm 4 m/S 741 mmHg 80%
    22:00 0°C° 0 mm 4 m/S 741 mmHg 84%
    23:00 0°C° 0 mm 4 m/S 741 mmHg 88%

    1 Februar, Samstag

    Zeit Temperatur Niederschläge Wind Luftdruck Luftfeuchtigkeit
    00:00 +1°C° 0 mm 3 m/S 741 mmHg 90%
    01:00 0°C° 0 mm 3 m/S 741 mmHg 91%
    02:00 +1°C° 0 mm 2 m/S 741 mmHg 93%
    03:00 +1°C° 0 mm 2 m/S 741 mmHg 94%
    04:00 +2°C° 0 mm 2 m/S 741 mmHg 95%
    05:00 +3°C° 0 mm 1 m/S 741 mmHg 96%
    06:00 +3°C° 0 mm 1 m/S 742 mmHg 96%
    07:00 +3°C° 0 mm 1 m/S 742 mmHg 96%
    08:00 +3°C° 0 mm 1 m/S 743 mmHg 97%
    09:00 +2°C° 0 mm 2 m/S 743 mmHg 95%
    10:00 +3°C° 0 mm 2 m/S 743 mmHg 93%
    11:00 +2°C° 0 mm 3 m/S 744 mmHg 91%
    12:00 +2°C° 0 mm 3 m/S 744 mmHg 88%
    13:00 +1°C° 0 mm 4 m/S 744 mmHg 84%
    14:00 +3°C° 0 mm 4 m/S 744 mmHg 80%
    15:00 +1°C° 0 mm 4 m/S 745 mmHg 81%
    16:00 +2°C° 0 mm 3 m/S 745 mmHg 82%
    17:00 +2°C° 0 mm 2 m/S 745 mmHg 83%
    18:00 +2°C° 0 mm 2 m/S 746 mmHg 84%
    19:00 +2°C° 0 mm 2 m/S 746 mmHg 85%
    20:00 +2°C° 0 mm 2 m/S 747 mmHg 86%
    21:00 +2°C° 0 mm 2 m/S 747 mmHg 86%
    22:00 +3°C° 0 mm 1 m/S 747 mmHg 85%
    23:00 +3°C° 0 mm 1 m/S 747 mmHg 85%

    2 Februar, Sonntag

    Zeit Temperatur Niederschläge Wind Luftdruck Luftfeuchtigkeit
    00:00 +2°C° 0 mm 2 m/S 747 mmHg 85%
    01:00 +2°C° 0 mm 2 m/S 748 mmHg 86%
    02:00 +1°C° 0 mm 2 m/S 748 mmHg 87%
    03:00 +1°C° 0 mm 2 m/S 748 mmHg 87%
    04:00 +1°C° 0 mm 2 m/S 747 mmHg 88%
    05:00 0°C° 0 mm 3 m/S 747 mmHg 89%
    06:00 0°C° 0 mm 3 m/S 747 mmHg 88%
    07:00 0°C° 0 mm 4 m/S 747 mmHg 86%
    08:00 0°C° 0 mm 4 m/S 748 mmHg 84%
    09:00 +1°C° 0 mm 5 m/S 747 mmHg 82%
    10:00 +2°C° 0 mm 5 m/S 747 mmHg 79%
    11:00 +3°C° 0 mm 6 m/S 747 mmHg 76%
    12:00 +3°C° 0 mm 6 m/S 747 mmHg 75%
    13:00 +4°C° 0 mm 7 m/S 747 mmHg 74%
    14:00 +5°C° 0 mm 7 m/S 746 mmHg 73%
    15:00 +5°C° 0 mm 7 m/S 746 mmHg 75%
    16:00 +5°C° 0 mm 7 m/S 746 mmHg 77%
    17:00 +5°C° 0 mm 6 m/S 745 mmHg 79%
    18:00 +5°C° 0.1 mm 6 m/S 745 mmHg 82%
    19:00 +5°C° 0.1 mm 6 m/S 745 mmHg 85%
    20:00 +5°C° 0.1 mm 7 m/S 745 mmHg 89%
    21:00 +5°C° 0.3 mm 6 m/S 745 mmHg 90%
    22:00 +5°C° 0.3 mm 6 m/S 745 mmHg 92%
    23:00 +5°C° 0.3 mm 6 m/S 745 mmHg 94%

    3 Februar, Montag

    Zeit Temperatur Niederschläge Wind Luftdruck Luftfeuchtigkeit
    00:00 +6°C° 0.5 mm 5 m/S 745 mmHg 93%
    01:00 +5°C° 0.5 mm 5 m/S 745 mmHg 92%
    02:00 +5°C° 0.5 mm 4 m/S 745 mmHg 91%
    03:00 +5°C° 0 mm 4 m/S 745 mmHg 87%
    04:00 +5°C° 0 mm 5 m/S 745 mmHg 83%
    05:00 +3°C° 0 mm 5 m/S 745 mmHg 78%
    06:00 +3°C° 0 mm 5 m/S 745 mmHg 80%
    07:00 +2°C° 0 mm 5 m/S 745 mmHg 83%
    08:00 +1°C° 0 mm 5 m/S 745 mmHg 85%
    09:00 +2°C° 0 mm 5 m/S 745 mmHg 79%
    10:00 +3°C° 0 mm 6 m/S 745 mmHg 74%
    11:00 +4°C° 0 mm 6 m/S 746 mmHg 69%
    12:00 +4°C° 0.1 mm 6 m/S 745 mmHg 70%
    13:00 +4°C° 0.1 mm 6 m/S 745 mmHg 72%
    14:00 +3°C° 0.1 mm 6 m/S 745 mmHg 73%
    15:00 +3°C° 0 mm 6 m/S 745 mmHg 72%
    16:00 +3°C° 0 mm 5 m/S 745 mmHg 71%
    17:00 +3°C° 0 mm 5 m/S 745 mmHg 70%
    18:00 +2°C° 0 mm 5 m/S 745 mmHg 72%
    19:00 +3°C° 0 mm 4 m/S 745 mmHg 75%
    20:00 +3°C° 0 mm 4 m/S 745 mmHg 78%
    21:00 +1°C° 0 mm 4 m/S 746 mmHg 79%
    22:00 +1°C° 0 mm 4 m/S 746 mmHg 80%
    23:00 0°C° 0 mm 4 m/S 746 mmHg 81%
    Mehr zeigen